Flag for China Weather past 2 weeks in Xiamen, Fujian, China

Now
81 °F

Fog.


Feels Like: 89 °F
Forecast: 82 / 91 °F
Wind: No wind

Location: Xiamen Airport

Current Time: Jul 24, 2014 at 11:31:41 PM

Latest Report: Jul 24, 2014 at 11:00 PM


Visibility: 3 mi

Pressure: 29.68 "Hg

Humidity: 100%

Dew point: 81 °F

Location of XiamenLocation

Historic Weather in Xiamen — Graph

°F

Xiamen temperature yesterday

Maximum temperature yesterday: 90 °F (at 12:00 AM)
Minimum temperature yesterday: 79 °F (at 12:00 PM)
Average temperature yesterday: 81 °F

Past Weeks' High & Low Weather Summary

 TemperatureHumidityPressure
High99 °F (Jul 22, 2:00 PM)100% (Jul 23, 1:00 PM)29.83 "Hg (Jul 23, 1:00 PM)
Low77 °F (Jul 24, 12:00 PM)39% (Jul 22, 12:00 PM)29.24 "Hg (Jul 23, 2:00 PM)
Average87 °F75%29.70 "Hg
* Reported Jul 9 10:00 PM — Jul 24 10:00 PM, Xiamen, Weather by CustomWeather, © 2014

Note: Actual official high and low records may vary slightly from our data, if they occured in-between our weather recording intervals... More about our weather records

Advertising

Xiamen weather history for previous 24 hours

 ConditionsComfort  
Time TempWeatherWind HumidityBarometerVisibility
10:00 PM
Jul 24
81 °FFog.1 mph100%29.65 "Hg3 mi
9:00 PM79 °FPartly cloudy.No wind100%29.65 "Hg4 mi
8:00 PM79 °FPartly cloudy.1 mph100%29.62 "Hg6 mi
7:00 PM77 °FRain showers. Fog.10 mph100%29.59 "Hg2 mi
6:00 PM79 °FSprinkles. Partly sunny.1 mph100%29.59 "Hg4 mi
5:00 PM79 °FPartly sunny.1 mph100%29.56 "Hg4 mi
4:00 PM77 °FSprinkles. Broken clouds.1 mph100%29.56 "Hg4 mi
3:00 PM77 °FSprinkles. Broken clouds.3 mph100%29.59 "Hg4 mi
2:00 PM77 °FSprinkles. Broken clouds.8 mph100%29.59 "HgN/A
1:00 PM77 °FRain showers. Broken clouds.6 mph100%29.59 "Hg3 mi
12:00 PM77 °FRain showers. Broken clouds.10 mph100%29.59 "Hg3 mi
11:00 AM81 °FSprinkles. Broken clouds.15 mph89%29.56 "Hg4 mi
10:00 AM82 °FPartly sunny.13 mph89%29.53 "HgN/A
9:00 AM79 °FPartly sunny.17 mph100%29.53 "HgN/A
8:00 AM79 °FLight rain. Partly sunny.13 mph94%29.50 "HgN/A
7:00 AM79 °FLight rain. Partly sunny.13 mph100%29.47 "Hg4 mi
6:00 AM79 °FLight rain. Partly sunny.15 mph100%29.47 "Hg4 mi
5:00 AM79 °FLight rain. Passing clouds.13 mph100%29.42 "Hg4 mi
4:00 AM79 °FSprinkles. Passing clouds.15 mph94%29.42 "Hg5 mi
3:00 AM79 °FSprinkles. Passing clouds.17 mph100%29.39 "Hg4 mi
2:00 AM79 °FRain showers. Partly cloudy.17 mph100%29.36 "Hg3 mi
1:00 AM79 °FRain. Partly cloudy.20 mph100%29.39 "Hg3 mi
12:00 AM79 °FRain. Passing clouds.17 mph100%29.39 "Hg4 mi
11:00 PM
Jul 23
81 °FLight rain. Passing clouds.13 mph94%29.36 "HgN/A
Weather by CustomWeather, © 2014

See weather overviewHow to use our weather pages